Louisville, KY

10:21 PM EST on December 09, 2016 (GMT -0500)
Bowman

Weather History for KLOU - October, 2011

Change the Weather History Date:

Saturday, October 8, 2011

  Actual Average Record
Temperature  
Mean Temperature 68 °F 60 °F  
Max Temperature 81 °F 71 °F 91 °F (2007)
Min Temperature 54 °F 50 °F 33 °F (1987)
Degree Days  
Heating Degree Days 0 6  
Month to date heating degree days 36 40  
Since 1 July heating degree days 80 76  
Cooling Degree Days 3 1  
Month to date cooling degree days 13 15  
Year to date cooling degree days 1716 1428  
Growing Degree Days 18 (Base 50)    
Moisture  
Dew Point 53 °F    
Average Humidity 64    
Maximum Humidity 93    
Minimum Humidity 35    
Precipitation  
Precipitation 0.00 in 0.10 in 1.70 in (1975)
Month to date precipitation 0.00 0.74  
Year to date precipitation 54.98 35.44  
Snow  
Snow 0.00 in - - ()
Month to date snowfall  
Since 1 July snowfall  
Since 1 September snowfall  
Snow Depth -    
Sea Level Pressure  
Sea Level Pressure 30.35 in    
Wind  
Wind Speed 1 mph (South)    
Max Wind Speed 9 mph    
Max Gust Speed 13 mph    
Visibility 10 miles    
Events      
T = Trace of Precipitation, MM = Missing Value Source: NWS Daily Summary

Daily Weather History Graph

Daily Weather History Graph

Search for Another Location

Airport or City:

Trip Planner

Search our weather history database for the weather conditions in past years. The results will help you decide how hot, cold, wet, or windy it might be!

Date:

Astronomy

Oct. 08, 2011 Rise Set
Actual Time 7:44 AM EDT 7:15 PM EDT
Civil Twilight 7:18 AM EDT 7:41 PM EDT
Nautical Twilight 6:47 AM EDT 8:12 PM EDT
Astronomical Twilight 6:16 AM EDT 8:42 PM EDT
Moon 5:23 PM EDT (10/8) 4:33 AM EDT (10/8)
Length of Visible Light 12h 23m
Length of Day
11h 30m
Waxing Gibbous, 90% of the Moon is Illuminated
Oct 8
Waxing Gibbous
Oct 11
Full
Oct 19
Last Quarter
Oct 26
New
Nov 2
First Quarter

Hourly Weather History & Observations

Time (EDT) Temp. Dew Point Humidity Pressure Visibility Wind Dir Wind Speed Gust Speed Precip Events Conditions
12:53 AM 61.0 °F 54.0 °F 78% 30.31 in 10.0 mi Calm Calm - N/A   Clear
1:53 AM 61.0 °F 54.0 °F 78% 30.32 in 10.0 mi Calm Calm - N/A   Clear
2:53 AM 59.0 °F 53.1 °F 81% 30.32 in 10.0 mi Calm Calm - N/A   Clear
3:53 AM 59.0 °F 54.0 °F 83% 30.31 in 10.0 mi Calm Calm - N/A   Clear
4:53 AM 57.9 °F 54.0 °F 87% 30.31 in 10.0 mi Calm Calm - N/A   Clear
5:53 AM 55.9 °F 53.1 °F 90% 30.33 in 10.0 mi Calm Calm - N/A   Clear
6:53 AM 55.0 °F 53.1 °F 93% 30.36 in 10.0 mi Calm Calm - N/A   Clear
7:53 AM 55.0 °F 52.0 °F 89% 30.39 in 10.0 mi Calm Calm - N/A   Clear
8:53 AM 60.8 °F 55.4 °F 82% 30.41 in 10.0 mi SE 3.5 mph - N/A   Clear
9:53 AM 66.0 °F 55.9 °F 70% 30.42 in 10.0 mi South 3.5 mph - N/A   Clear
10:53 AM 69.1 °F 55.0 °F 61% 30.42 in 10.0 mi South 5.8 mph - N/A   Clear
11:53 AM 73.4 °F 53.6 °F 50% 30.42 in 10.0 mi SSW 6.9 mph - N/A   Clear
12:53 PM 75.0 °F 52.0 °F 44% 30.40 in 10.0 mi WSW 6.9 mph - N/A   Clear
1:53 PM 78.8 °F 48.2 °F 34% 30.38 in 10.0 mi Calm Calm - N/A   Clear
2:53 PM 79.0 °F 48.9 °F 35% 30.35 in 10.0 mi Calm Calm - N/A   Clear
3:53 PM 80.1 °F 50.0 °F 35% 30.33 in 10.0 mi Calm Calm - N/A   Clear
4:53 PM 80.1 °F 50.0 °F 35% 30.32 in 10.0 mi Calm Calm - N/A   Clear
5:53 PM 81.0 °F 52.0 °F 36% 30.30 in 10.0 mi Calm Calm - N/A   Clear
6:53 PM 79.0 °F 52.0 °F 39% 30.31 in 10.0 mi Calm Calm - N/A   Clear
7:53 PM 73.0 °F 54.0 °F 51% 30.32 in 10.0 mi Calm Calm - N/A   Clear
8:53 PM 68.0 °F 55.0 °F 63% 30.32 in 10.0 mi Calm Calm - N/A   Clear
9:53 PM 64.0 °F 55.0 °F 73% 30.33 in 10.0 mi Calm Calm - N/A   Clear
10:53 PM 63.0 °F 55.0 °F 75% 30.33 in 10.0 mi Calm Calm - N/A   Clear
11:53 PM 60.1 °F 55.0 °F 83% 30.32 in 10.0 mi Calm Calm - N/A   Clear